IONOSFERA-M 4

Last updated on Mon Sep 07 2026 00:02:46 GMT+0000 (Coordinated Universal Time)

1 64877U 25155B 26249.57915747 .00000030 00000+0 33124-4 0 9997 2 64877 98.6113 209.3834 0001135 48.8580 311.2695 14.21500755 57968
UTC large
Height (km)
Speed (km/s)
/
Latitude / Longitude
Inclination (degrees)
Orbital Period (minutes)
Azimuth
Elevation
Range (km)
Doppler Factor

Next 0 passes for location: London (51.5072 / 0.1276)

No passes found over London.
IONOSFERA-M 4